673  
ASCA42 TJSJ 300710  
RWRPR  
PUERTO RICO/U.S. VIRGIN ISLANDS HOURLY WEATHER ROUNDUP  
NATIONAL WEATHER SERVICE SAN JUAN PR  
300 AM AST MON JAN 30 2023  
 
PRZ001>002-007>008-010-300800-  
PUERTO RICO  
 
CITY SKY/WX TMP DP RH WIND PRES REMARKS
 
SAN JUAN LMM CLOUDY 77 70 78 E21G26 30.02F  
CEIBA CLOUDY 75 66 73 NE15G23 30.02F  

 
 
VIZ001>002-300800-  
U.S. VIRGIN ISLANDS  
 
CITY SKY/WX TMP DP RH WIND PRES REMARKS
 
CHARLOTTE AMA PTCLDY 75 66 73 NE17G26 29.99F  
CHRISTIANSTED PTCLDY 73 68 83 NE8 30.00F  

 
 
HOURLY WEATHER ROUNDUP FOR THE NEWS MEDIA  
 
CITY SKY/WX TMP DP RH WIND PRES REMARKS
 
ORLANDO PTCLDY 64 61 90 SE3 30.19S  
NEW YORK CLOUDY 40 37 89 W6 30.17R  
NEWARK CLOUDY 43 35 73 SW9 30.16R  
CHICAGO LGT SNOW 17 10 74 NW10 30.29S WCI 5  
HARTFORD MOCLDY 44 37 76 W8 30.10R  
BOSTON MOCLDY 42 33 70 SW8 30.09R  
DALLAS CLOUDY 29 25 85 N12G23 30.24S WCI 19  
PHILADELPHIA CLOUDY 41 38 89 SW5 30.19S  
LOS ANGELES LGT RAIN 50 47 89 CALM 29.91R FOG  
WASHINGTON DC CLOUDY 39 37 92 CALM 30.15F  
 
CLICK HERE TO GO TO PREVIOUS BULLETINS.

The Nexlab PR Page Main Text Page